Location: Wanzleben
(52.0609°N, 11.4408°E)
Time: 11:48:19
(UTC+00:00)

Cosmos 2263 Rocket - Pass Details

Date: 21 January 2021
Orbit: 825 x 847 km, 71.0° (Epoch: 24 February)

Event Time Altitude Azimuth Distance (km) Brightness Sun altitude
Rises 18:44:05 0° 261° (W) 3,405 6.6 -27.4°
Reaches altitude 10° 18:47:08 10° 277° (W) 2,470 5.6 -27.9°
Maximum altitude 18:51:26 22° 326° (NW) 1,787 4.2 -28.5°
Enters shadow 18:54:27 15° 5° (N) 2,153 4.3 -29.0°
